{"data":{"norad_id":51875,"epoch":"2026-05-25T02:18:07.242624Z","epoch_age_seconds":67067,"freshness":"FRESH","line1":"1 51875U 22022Z   26145.09591716  .00000417  00000+0  44313-4 0  9990","line2":"2 51875  53.2128  26.0301 0001358  75.3499 284.7644 15.08836557234658","mean_motion":15.08836557,"eccentricity":0.0001358,"inclination_deg":53.2128,"raan_deg":26.0301,"arg_perigee_deg":75.3499,"mean_anomaly_deg":284.7644,"bstar":4.4313e-5,"rev_number":23465,"period_min":95.437772455827,"perigee_km":538.81446327176,"apogee_km":540.69336244369,"semimajor_km":6917.8909128577,"source":"CELESTRAK","updated_at":"2026-05-25T13:38:16.983886Z"}}